Location: Unspecified
(49.2170°N, 0.0000°E)
Time: 15:13:56
(UTC+00:00)

Envisat - Pass Details

Date: 02 December 2020
Orbit: 764 x 766 km, 98.1° (Epoch: 20 January)

Event Time Altitude Azimuth Distance (km) Brightness Sun altitude
Rises 04:40:49 0° 27° (NNE) 3,246 6.6 -27.6°
Reaches altitude 10° 04:43:54 10° 46° (NE) 2,313 6.0 -27.1°
Maximum altitude 04:47:18 18° 89° (E) 1,826 5.8 -26.5°
Drops below altitude 10° 04:50:41 10° 131° (SE) 2,300 6.1 -25.9°
Sets 04:53:43 0° 150° (SSE) 3,220 6.7 -25.5°
